This demonstration page uses our WeatherBlox Daily Observations layout. Learn more.

Left ArrowRight Arrow

44.8408, -93.29828

Hourly Observations for March 23, 2017

Temp ( °F °C ) Dew Point ( °F °C ) Humidity (%) Winds ( mph kmh ) Pressure ( in mb ) Visibility ( mi km ) Precip ( " mm )
12:53 am 00:53 Cloudy 36 2.2 16 -8.9 44 44 SE 12 19 30.29 1026 10 16 0.00 0.00
1:53 am 01:53 Cloudy 36 2.2 18 -7.8 48 48 SE 9 15 30.27 1025 10 16 0.00 0.03
2:53 am 02:53 Cloudy 37 2.8 18 -7.8 46 46 SSE 12 19 30.26 1025 10 16 0.00 0.00
3:53 am 03:53 Cloudy 37 2.8 20 -6.7 50 50 SSE 18 30 30.24 1024 10 16 0.00 0.00
4:53 am 04:53 Cloudy 37 2.8 21 -6.1 52 52 SSE 15 24 30.21 1023 10 16 0.00 0.00
5:53 am 05:53 Cloudy 37 2.8 22 -5.6 54 54 SSE 15 24 30.20 1023 10 16 0.00 0.00
6:53 am 06:53 Cloudy 37 2.8 22 -5.6 54 54 SSE 15 24 30.17 1022 10 16 0.00 0.00
7:53 am 07:53 Cloudy 37 2.8 20 -6.7 50 50 SSE 13 20 30.15 1021 10 16 0.00 0.00
8:53 am 08:53 Cloudy 38 3.3 22 -5.6 52 52 SE 12 19 30.13 1020 10 16 0.00 0.00
9:53 am 09:53 Cloudy 38 3.3 21 -6.1 51 51 S 18 30 30.11 1020 10 16 0.00 0.00
10:53 am 10:53 Cloudy 39 3.9 22 -5.6 50 50 SSE 20 31 30.09 1019 10 16 0.00 0.00
11:53 am 11:53 Cloudy 39 3.9 23 -5 53 53 SSE 20 31 30.06 1018 10 16 0.00 0.00
12:53 pm 12:53 Cloudy 39 3.9 24 -4.4 55 55 SSE 18 30 30.06 1018 10 16 0.00 0.00
1:27 pm 13:27 Cloudy 39 3.9 26 -3.3 60 60 SSE 16 26 30.03 1017 10 16 0.00 0.00
1:53 pm 13:53 Cloudy 39 3.9 27 -2.8 62 62 SSE 16 26 29.98 1015 10 16 0.00 0.00
2:31 pm 14:31 Cloudy with Light Rain 39 3.9 28 -2.2 65 65 SSE 20 31 30.00 1016 10 16 0.00 0.03
2:53 pm 14:53 Cloudy 39 3.9 28 -2.2 65 65 SSE 15 24 29.97 1015 10 16 0.00 0.03
3:53 pm 15:53 Cloudy 39 3.9 28 -2.2 65 65 SE 10 17 29.94 1014 10 16 0.00 0.00
4:53 pm 16:53 Cloudy with Drizzle 38 3.3 31 -0.6 76 76 SSE 17 28 29.90 1013 6 10 0.00 0.03
5:46 pm 17:46 Cloudy with Light Rain 38 3.3 33 0.6 83 83 ESE 16 26 29.85 1011 5 8 0.00 0.03
5:53 pm 17:53 Cloudy with Light Rain 39 3.9 33 0.6 79 79 ESE 17 28 29.81 1010 4 6 0.00 0.03
6:01 pm 18:01 Cloudy with Light Rain 38 3.3 33 0.6 83 83 SSE 12 19 29.85 1011 8 13 0.02 0.51
6:53 pm 18:53 Cloudy 39 3.9 33 0.6 79 79 SSE 12 19 29.85 1011 10 16 0.02 0.51
7:53 pm 19:53 Cloudy with Drizzle 39 3.9 34 1.1 82 82 SE 9 15 29.87 1012 5 8 0.00 0.03
8:53 pm 20:53 Cloudy 39 3.9 34 1.1 82 82 SE 12 19 29.84 1011 10 16 0.00 0.03
9:53 pm 21:53 Cloudy with Rain 39 3.9 35 1.7 86 86 ESE 8 13 29.86 1011 4 6 0.01 0.25
10:18 pm 22:18 Cloudy with Light Rain 39 3.9 35 1.7 86 86 ENE 7 11 29.88 1012 3 5 0.02 0.51
10:41 pm 22:41 Cloudy with Light Rain 38 3.3 35 1.7 89 89 E 7 11 29.91 1013 3 5 0.03 0.76
10:53 pm 22:53 Cloudy with Light Rain 39 3.9 36 2.2 89 89 E 7 11 29.87 1012 3 5 0.05 1.27
11:12 pm 23:12 Cloudy with Light Rain 37 3 36 2 93 93 ENE 5 7 29.91 1013 3 5 0.00 0.00
11:53 pm 23:53 Cloudy with Light Rain 38 3.3 36 2.2 93 93 ENE 7 11 29.88 1012 4 6 0.06 1.52

Powered by AerisWeather